This is the latest recevied weather packets stored in our database for station/object KO4LCK. If no packets are shown the sender has not sent any weather packets the latest 10 day(s).
| Time | Temp. | Humidity | Pressure | Rain* | Wind** | Luminosity | Snow |
|---|---|---|---|---|---|---|---|
| 1788014796 | 26.67° C | 79% | 1022 hPa | 0 mm | - | 183 W/m² | - |
| 1788014491 | 26.67° C | 79% | 1022.1 hPa | 0 mm | - | 227 W/m² | - |
| 1788014186 | 26.67° C | 79% | 1022.1 hPa | 0 mm | - | 257 W/m² | - |
| 1788013886 | 26.11° C | 80% | 1022 hPa | 0 mm | - | 291 W/m² | - |
| 1788013595 | 26.11° C | 81% | 1022 hPa | 0 mm | - | 311 W/m² | - |
| 1788013280 | 25.56° C | 81% | 1022 hPa | 0 mm | - | 220 W/m² | - |
| 1788012979 | 25.56° C | 80% | 1021.9 hPa | 0 mm | - | 196 W/m² | - |
| 1788012674 | 26.11° C | 80% | 1022.1 hPa | 0 mm | - | 287 W/m² | - |
| 1788012369 | 25.56° C | 80% | 1021.9 hPa | 0 mm | - | 196 W/m² | - |
| 1788012064 | 25° C | 81% | 1021.9 hPa | 0 mm | - | 370 W/m² | - |
| 1788011763 | 25° C | 81% | 1021.7 hPa | 0 mm | - | 217 W/m² | - |
| 1788011457 | 25° C | 81% | 1021.7 hPa | 0 mm | - | 197 W/m² | - |
| 1788011157 | 25° C | 82% | 1021.5 hPa | 0 mm | - | 216 W/m² | - |
| 1788010851 | 25° C | 82% | 1021.7 hPa | 0 mm | - | 222 W/m² | - |
| 1788010545 | 24.44° C | 84% | 1021.7 hPa | 0 mm | - | 277 W/m² | - |
| 1788010240 | 23.89° C | 84% | 1021.6 hPa | 0 mm | - | 161 W/m² | - |
| 1788009940 | 23.89° C | 84% | 1021.7 hPa | 0 mm | - | 121 W/m² | - |
| 1788009638 | 23.89° C | 84% | 1021.7 hPa | 0 mm | - | 135 W/m² | - |
| 1788009332 | 23.89° C | 85% | 1021.6 hPa | 0 mm | - | 126 W/m² | - |
| 1788009028 | 23.89° C | 85% | 1021.5 hPa | 0 mm | - | 129 W/m² | - |
| 1788008723 | 23.33° C | 86% | 1021.7 hPa | 0 mm | - | 110 W/m² | - |
| 1788008422 | 23.33° C | 87% | 1021.6 hPa | 0 mm | - | 139 W/m² | - |
| 1788008120 | 23.33° C | 88% | 1021.5 hPa | 0 mm | - | 104 W/m² | - |
| 1788007819 | 22.78° C | 88% | 1021.5 hPa | 0 mm | - | 84 W/m² | - |
| 1788007517 | 22.78° C | 89% | 1021.4 hPa | 0 mm | - | 146 W/m² | - |
* Rain latest hour (hover to see other rain measurements)
** Current wind speed in m/s (hover to see current wind gust speed)